AFL1227 UWGG-UUEE

Flight info

Callsign AFL1227
Flight time 0h 45m
Altitude 30000
Route LARNO T291 URIDU L158 DIMGI
Aircraft A321/M-SDE3FGHIRWY/LB1

Departure

Time 2026-05-05 18:29
Airport Nizhny Novgorod / Strigino International Airport (UWGG)

Arrival

Time 2026-05-05 19:15
Airport Sheremetyevo International Airport (UUEE)
Time Latitude Longitude Altitude Speed Heading
2026-05-05 17:55 56.22235 43.78841 266 ft 0 kts 146°
2026-05-05 18:23 56.22231 43.78845 266 ft 3 kts 146°
2026-05-05 18:24 56.22180 43.78888 266 ft 12 kts 174°
2026-05-05 18:24 56.22093 43.78860 266 ft 13 kts 200°
2026-05-05 18:24 56.22035 43.78744 266 ft 13 kts 204°
2026-05-05 18:24 56.21945 43.78702 266 ft 14 kts 208°
2026-05-05 18:25 56.21873 43.78595 266 ft 14 kts 196°
2026-05-05 18:25 56.21842 43.78583 266 ft 14 kts 191°
2026-05-05 18:25 56.21668 43.78519 266 ft 16 kts 191°
2026-05-05 18:25 56.21554 43.78478 266 ft 17 kts 191°
2026-05-05 18:26 56.21481 43.78352 266 ft 14 kts 275°
2026-05-05 18:26 56.21497 43.78225 267 ft 10 kts 281°
2026-05-05 18:26 56.21513 43.78099 268 ft 10 kts 290°
2026-05-05 18:26 56.21548 43.78057 268 ft 9 kts 354°
2026-05-05 18:27 56.21575 43.78063 268 ft 0 kts 11°
2026-05-05 18:28 56.21723 43.78119 267 ft 57 kts 12°
2026-05-05 18:28 56.22357 43.78349 267 ft 121 kts 11°
2026-05-05 18:29 56.23344 43.78726 270 ft 167 kts 13°
2026-05-05 18:29 56.24495 43.79157 791 ft 167 kts
2026-05-05 18:29 56.25608 43.79525 1332 ft 170 kts
2026-05-05 18:29 56.26824 43.79847 1688 ft 183 kts
2026-05-05 18:30 56.28151 43.80203 1814 ft 202 kts 359°
2026-05-05 18:30 56.29490 43.79421 1938 ft 214 kts 317°
2026-05-05 18:30 56.30273 43.77043 2042 ft 239 kts 280°
2026-05-05 18:30 56.30017 43.74018 2545 ft 253 kts 243°
2026-05-05 18:31 56.28825 43.71613 3232 ft 262 kts 221°
2026-05-05 18:31 56.27320 43.69719 4065 ft 263 kts 215°
2026-05-05 18:31 56.25751 43.68032 4900 ft 265 kts 213°
2026-05-05 18:31 56.24150 43.66369 5685 ft 265 kts 213°
2026-05-05 18:32 56.22563 43.64694 6536 ft 264 kts 214°
2026-05-05 18:32 56.20984 43.62969 7228 ft 267 kts 215°
2026-05-05 18:32 56.19403 43.61207 8010 ft 267 kts 215°
2026-05-05 18:32 56.17821 43.59434 8768 ft 269 kts 215°
2026-05-05 18:33 56.16231 43.57638 9505 ft 271 kts 215°
2026-05-05 18:33 56.14634 43.55819 10117 ft 278 kts 216°
2026-05-05 18:33 56.13057 43.53553 10271 ft 297 kts 232°
2026-05-05 18:33 56.12091 43.50190 10402 ft 316 kts 257°
2026-05-05 18:34 56.11733 43.46172 10531 ft 336 kts 262°
2026-05-05 18:34 56.11424 43.41920 10774 ft 351 kts 262°
2026-05-05 18:34 56.11117 43.37530 11303 ft 357 kts 263°
2026-05-05 18:34 56.10808 43.33098 11919 ft 360 kts 263°
2026-05-05 18:35 56.10490 43.28632 12535 ft 363 kts 263°
2026-05-05 18:35 56.10163 43.24157 13135 ft 366 kts 263°
2026-05-05 18:35 56.09819 43.19571 13724 ft 369 kts 263°
2026-05-05 18:35 56.09470 43.14995 14252 ft 372 kts 263°
2026-05-05 18:36 56.09109 43.10298 14780 ft 375 kts 263°
2026-05-05 18:36 56.08754 43.05687 15304 ft 377 kts 262°
2026-05-05 18:36 56.08391 43.00998 15807 ft 380 kts 262°
2026-05-05 18:36 56.08027 42.96298 16322 ft 383 kts 262°
2026-05-05 18:37 56.07659 42.91557 16818 ft 386 kts 262°
2026-05-05 18:37 56.07290 42.86792 17312 ft 388 kts 263°
2026-05-05 18:37 56.06919 42.81982 17802 ft 391 kts 263°
2026-05-05 18:37 56.06537 42.77074 18266 ft 394 kts 262°
2026-05-05 18:38 56.06152 42.72200 18695 ft 396 kts 262°
2026-05-05 18:38 56.05762 42.67318 19127 ft 398 kts 262°
2026-05-05 18:38 56.05366 42.62407 19558 ft 400 kts 262°
2026-05-05 18:38 56.04960 42.57393 19996 ft 402 kts 262°
2026-05-05 18:39 56.04561 42.52428 20420 ft 404 kts 262°
2026-05-05 18:39 56.04154 42.47381 20846 ft 406 kts 262°
2026-05-05 18:39 56.03748 42.42417 21257 ft 408 kts 262°
2026-05-05 18:39 56.03332 42.37375 21657 ft 411 kts 261°
2026-05-05 18:40 56.02907 42.32248 22071 ft 413 kts 261°
2026-05-05 18:40 56.02491 42.27222 22463 ft 415 kts 261°
2026-05-05 18:40 56.02062 42.22042 22862 ft 417 kts 261°
2026-05-05 18:40 56.01634 42.16893 23254 ft 420 kts 261°
2026-05-05 18:41 56.01200 42.11718 23604 ft 422 kts 261°
2026-05-05 18:41 56.00759 42.06518 23939 ft 423 kts 261°
2026-05-05 18:41 56.00316 42.01305 24254 ft 425 kts 261°
2026-05-05 18:41 55.99870 41.96065 24557 ft 427 kts 261°
2026-05-05 18:42 55.99416 41.90807 24859 ft 429 kts 261°
2026-05-05 18:42 55.98953 41.85516 25175 ft 431 kts 261°
2026-05-05 18:42 55.98485 41.80207 25507 ft 433 kts 261°
2026-05-05 18:42 55.98013 41.74813 25827 ft 435 kts 261°
2026-05-05 18:43 55.97548 41.69467 26131 ft 437 kts 261°
2026-05-05 18:43 55.97078 41.64098 26433 ft 438 kts 261°
2026-05-05 18:43 55.96604 41.58730 26849 ft 437 kts 261°
2026-05-05 18:43 55.96127 41.53379 27280 ft 435 kts 261°
2026-05-05 18:44 55.95649 41.48057 27686 ft 434 kts 261°
2026-05-05 18:44 55.95169 41.42741 27827 ft 432 kts 261°
2026-05-05 18:44 55.94683 41.37412 27844 ft 426 kts 261°
2026-05-05 18:44 55.94205 41.32210 27842 ft 424 kts 261°
2026-05-05 18:45 55.93891 41.28769 27845 ft 424 kts 261°
2026-05-05 18:45 55.93506 41.24553 27844 ft 424 kts 261°
2026-05-05 18:45 55.93188 41.21072 27845 ft 423 kts 261°
2026-05-05 18:46 55.92717 41.15891 27844 ft 423 kts 261°
2026-05-05 18:46 55.92234 41.10642 27846 ft 423 kts 261°
2026-05-05 18:46 55.91752 41.05458 27847 ft 423 kts 261°
2026-05-05 18:46 55.91263 41.00282 27843 ft 423 kts 261°
2026-05-05 18:47 55.90771 40.95100 27844 ft 423 kts 261°
2026-05-05 18:47 55.90278 40.89932 27841 ft 423 kts 261°
2026-05-05 18:47 55.89779 40.84710 27841 ft 423 kts 261°
2026-05-05 18:47 55.89284 40.79538 27839 ft 423 kts 261°
2026-05-05 18:48 55.88777 40.74225 27836 ft 423 kts 261°
2026-05-05 18:48 55.88282 40.69065 27836 ft 423 kts 261°
2026-05-05 18:48 55.87784 40.63901 27835 ft 423 kts 261°
2026-05-05 18:48 55.87276 40.58673 27831 ft 423 kts 261°
2026-05-05 18:49 55.86763 40.53447 27833 ft 423 kts 261°
2026-05-05 18:49 55.86256 40.48295 27831 ft 423 kts 261°
2026-05-05 18:49 55.85741 40.43081 27834 ft 423 kts 261°
2026-05-05 18:49 55.85219 40.37853 27833 ft 423 kts 261°
2026-05-05 18:50 55.84704 40.32716 27832 ft 422 kts 261°
2026-05-05 18:50 55.84187 40.27560 27830 ft 423 kts 261°
2026-05-05 18:50 55.83650 40.22206 27830 ft 423 kts 261°
2026-05-05 18:50 55.83133 40.17052 27827 ft 422 kts 261°
2026-05-05 18:51 55.82616 40.11903 27715 ft 424 kts 261°
2026-05-05 18:51 55.82085 40.06660 27345 ft 424 kts 260°
2026-05-05 18:51 55.81620 40.02120 27039 ft 422 kts 260°
2026-05-05 18:51 55.81089 39.96966 26687 ft 413 kts 260°
2026-05-05 18:52 55.80572 39.91975 26363 ft 410 kts 260°
2026-05-05 18:52 55.80046 39.86909 26033 ft 424 kts 260°
2026-05-05 18:52 55.79507 39.81717 25713 ft 430 kts 260°
2026-05-05 18:52 55.79027 39.76466 25389 ft 430 kts 262°
2026-05-05 18:53 55.78648 39.71205 25070 ft 428 kts 264°
2026-05-05 18:53 55.78331 39.65960 24719 ft 427 kts 264°
2026-05-05 18:53 55.78030 39.60656 24271 ft 424 kts 264°
2026-05-05 18:53 55.77726 39.55456 23828 ft 421 kts 264°
2026-05-05 18:54 55.77403 39.50293 23356 ft 419 kts 264°
2026-05-05 18:54 55.77064 39.45171 22853 ft 416 kts 263°
2026-05-05 18:54 55.76714 39.40088 22340 ft 413 kts 263°
2026-05-05 18:54 55.76359 39.35038 21836 ft 411 kts 263°
2026-05-05 18:55 55.76003 39.30024 21337 ft 408 kts 263°
2026-05-05 18:55 55.75648 39.25044 20848 ft 405 kts 263°
2026-05-05 18:55 55.75294 39.20087 20431 ft 403 kts 263°
2026-05-05 18:55 55.74941 39.15156 20031 ft 401 kts 263°
2026-05-05 18:56 55.74586 39.10247 19632 ft 399 kts 263°
2026-05-05 18:56 55.74231 39.05358 19242 ft 397 kts 263°
2026-05-05 18:56 55.73879 39.00513 18860 ft 396 kts 263°
2026-05-05 18:56 55.73531 38.95672 18483 ft 394 kts 263°
2026-05-05 18:57 55.73472 38.90834 18098 ft 392 kts 274°
2026-05-05 18:57 55.73718 38.86023 17672 ft 390 kts 274°
2026-05-05 18:57 55.73963 38.81174 17236 ft 388 kts 274°
2026-05-05 18:57 55.74203 38.76434 16818 ft 385 kts 274°
2026-05-05 18:58 55.74437 38.71715 16404 ft 382 kts 274°
2026-05-05 18:58 55.74588 38.68613 16133 ft 380 kts 274°
2026-05-05 18:58 55.74816 38.63894 15720 ft 378 kts 274°
2026-05-05 18:58 55.75169 38.59298 15312 ft 376 kts 283°
2026-05-05 18:59 55.76079 38.54955 14920 ft 375 kts 295°
2026-05-05 18:59 55.77508 38.51024 14530 ft 375 kts 303°
2026-05-05 18:59 55.79012 38.47254 14147 ft 371 kts 303°
2026-05-05 18:59 55.80487 38.43552 13795 ft 362 kts 302°
2026-05-05 19:00 55.81933 38.39918 13649 ft 349 kts 302°
2026-05-05 19:00 55.83319 38.36458 13464 ft 338 kts 303°
2026-05-05 19:00 55.84701 38.33186 13264 ft 321 kts 304°
2026-05-05 19:00 55.86032 38.30152 13020 ft 302 kts 304°
2026-05-05 19:01 55.87302 38.27290 12677 ft 287 kts 304°
2026-05-05 19:01 55.88520 38.24537 12349 ft 280 kts 304°
2026-05-05 19:01 55.89708 38.21820 12016 ft 277 kts 303°
2026-05-05 19:01 55.90883 38.19109 11683 ft 275 kts 303°
2026-05-05 19:02 55.92058 38.16390 11354 ft 272 kts 303°
2026-05-05 19:02 55.93191 38.13761 11012 ft 270 kts 302°
2026-05-05 19:02 55.94355 38.11067 10665 ft 269 kts 302°
2026-05-05 19:02 55.95490 38.08437 10323 ft 267 kts 302°
2026-05-05 19:03 55.96621 38.05813 9982 ft 266 kts 302°
2026-05-05 19:03 55.97745 38.03205 9702 ft 262 kts 302°
2026-05-05 19:03 55.98848 38.00640 9412 ft 259 kts 302°
2026-05-05 19:03 55.99874 37.98023 9125 ft 254 kts 294°
2026-05-05 19:04 56.00559 37.95292 8854 ft 250 kts 284°
2026-05-05 19:04 56.00952 37.92296 8572 ft 247 kts 277°
2026-05-05 19:04 56.01260 37.89283 8298 ft 247 kts 277°
2026-05-05 19:04 56.01577 37.86255 8011 ft 246 kts 277°
2026-05-05 19:05 56.01895 37.83249 7736 ft 246 kts 277°
2026-05-05 19:05 56.02398 37.80355 7472 ft 249 kts 291°
2026-05-05 19:05 56.03340 37.77682 7192 ft 254 kts 305°
2026-05-05 19:05 56.04651 37.75523 6929 ft 260 kts 320°
2026-05-05 19:06 56.06266 37.73989 6656 ft 264 kts 330°
2026-05-05 19:06 56.07935 37.72621 6400 ft 264 kts 329°
2026-05-05 19:06 56.09607 37.71240 6132 ft 263 kts 329°
2026-05-05 19:06 56.11288 37.69973 5850 ft 265 kts 341°
2026-05-05 19:07 56.13152 37.69925 5570 ft 275 kts 10°
2026-05-05 19:07 56.14863 37.71483 5311 ft 282 kts 39°
2026-05-05 19:07 56.15969 37.74362 5084 ft 284 kts 73°
2026-05-05 19:07 56.16026 37.77826 4867 ft 278 kts 110°
2026-05-05 19:08 56.15065 37.80737 4751 ft 271 kts 137°
2026-05-05 19:08 56.13593 37.82748 4628 ft 262 kts 160°
2026-05-05 19:08 56.11871 37.83567 4528 ft 254 kts 183°
2026-05-05 19:08 56.10173 37.83145 4418 ft 241 kts 204°
2026-05-05 19:09 56.08752 37.81689 4309 ft 227 kts 224°
2026-05-05 19:09 56.07717 37.79646 4211 ft 225 kts 233°
2026-05-05 19:09 56.06732 37.77519 4147 ft 215 kts 232°
2026-05-05 19:09 56.05792 37.75515 4004 ft 206 kts 232°
2026-05-05 19:10 56.04893 37.73611 3900 ft 188 kts 232°
2026-05-05 19:10 56.04084 37.71897 3724 ft 175 kts 233°
2026-05-05 19:10 56.03333 37.70296 3547 ft 166 kts 233°
2026-05-05 19:10 56.02609 37.68753 3383 ft 159 kts 233°
2026-05-05 19:11 56.01894 37.67222 3217 ft 158 kts 233°
2026-05-05 19:11 56.01199 37.65736 3042 ft 156 kts 233°
2026-05-05 19:11 56.00581 37.64140 2860 ft 155 kts 251°
2026-05-05 19:11 56.00265 37.62332 2695 ft 150 kts 255°
2026-05-05 19:12 55.99980 37.60565 2475 ft 146 kts 255°
2026-05-05 19:12 55.99713 37.58822 2295 ft 145 kts 256°
2026-05-05 19:12 55.99453 37.57092 2085 ft 144 kts 256°
2026-05-05 19:12 55.99193 37.55343 1887 ft 144 kts 256°
2026-05-05 19:13 55.98935 37.53602 1708 ft 145 kts 256°
2026-05-05 19:13 55.98677 37.51853 1497 ft 146 kts 256°
2026-05-05 19:13 55.98417 37.50091 1276 ft 147 kts 256°
2026-05-05 19:13 55.98153 37.48325 1075 ft 147 kts 256°
2026-05-05 19:14 55.97891 37.46553 894 ft 147 kts 256°
2026-05-05 19:14 55.97629 37.44762 724 ft 147 kts 256°
2026-05-05 19:14 55.97383 37.43131 641 ft 132 kts 256°
2026-05-05 19:14 55.97228 37.42065 642 ft 82 kts 255°
2026-05-05 19:15 55.97145 37.41504 642 ft 20 kts 254°
2026-05-05 19:15 55.97193 37.41334 639 ft 16 kts 339°
2026-05-05 19:15 55.97299 37.41280 640 ft 15 kts 342°
2026-05-05 19:15 55.97395 37.41235 643 ft 14 kts 347°
2026-05-05 19:16 55.97491 37.41191 641 ft 16 kts 346°
2026-05-05 19:16 55.97559 37.41339 644 ft 16 kts 76°
2026-05-05 19:16 55.97584 37.41518 642 ft 13 kts 75°
2026-05-05 19:16 55.97641 37.41596 644 ft 12 kts 358°
2026-05-05 19:17 55.97717 37.41563 639 ft 10 kts 345°
2026-05-05 19:17 55.97784 37.41531 642 ft 10 kts 345°
2026-05-05 19:17 55.97851 37.41499 641 ft 12 kts 345°
2026-05-05 19:17 55.97936 37.41458 647 ft 10 kts 345°
2026-05-05 19:18 55.97973 37.41477 644 ft 8 kts 51°
2026-05-05 19:18 55.97989 37.41532 640 ft 6 kts 74°
2026-05-05 19:18 55.97992 37.41557 644 ft 0 kts 75°
2026-05-05 19:18 55.97994 37.41565 646 ft 3 kts 75°
2026-05-05 19:19 55.97995 37.41575 645 ft 0 kts 75°